• In Hungary
  • List of Countries
  • For 7 days
  • Water Temperature
  • Satellite Maps
  • Weather Map
  • News
  • Weather Widgets
  • user-avatar
    Login

    Hourly Weather Gavrilovo

    Today, 24 June, Sunday

    Time Temperature Precipitation Wind Pressure Humidity
    00:00 +19°C° 0.1 mm 2 mps 735 mmHg 93%
    01:00 +19°C° 0.1 mm 2 mps 735 mmHg 93%
    02:00 +20°C° 0 mm 1 mps 735 mmHg 91%
    03:00 +19°C° 0.1 mm 2 mps 735 mmHg 92%
    04:00 +19°C° 0.1 mm 3 mps 735 mmHg 93%
    05:00 +19°C° 0.1 mm 3 mps 735 mmHg 94%
    06:00 +18°C° 0.5 mm 3 mps 735 mmHg 94%
    07:00 +18°C° 0.5 mm 4 mps 736 mmHg 94%
    08:00 +17°C° 0 mm 3 mps 736 mmHg 94%
    09:00 +17°C° 0.8 mm 4 mps 736 mmHg 94%
    10:00 +15°C° 0.8 mm 4 mps 737 mmHg 93%
    11:00 +14°C° 0.8 mm 4 mps 737 mmHg 92%
    12:00 +15°C° 0.2 mm 4 mps 738 mmHg 89%
    13:00 +15°C° 0.2 mm 4 mps 738 mmHg 85%
    14:00 +15°C° 0.2 mm 4 mps 739 mmHg 82%
    15:00 +17°C° 0 mm 4 mps 739 mmHg 79%
    16:00 +17°C° 0 mm 4 mps 739 mmHg 77%
    17:00 +18°C° 0 mm 4 mps 739 mmHg 75%
    18:00 +16°C° 0 mm 3 mps 740 mmHg 80%
    19:00 +14°C° 0 mm 3 mps 740 mmHg 85%
    20:00 +14°C° 0 mm 2 mps 740 mmHg 89%
    21:00 +13°C° 0 mm 2 mps 740 mmHg 91%
    22:00 +12°C° 0 mm 2 mps 741 mmHg 92%
    23:00 +12°C° 0 mm 2 mps 741 mmHg 94%

    Tomorrow, 25 June, Monday

    Time Temperature Precipitation Wind Pressure Humidity
    00:00 +10°C° 0 mm 2 mps 742 mmHg 94%
    01:00 +10°C° 0 mm 2 mps 742 mmHg 94%
    02:00 +10°C° 0 mm 2 mps 742 mmHg 94%
    03:00 +10°C° 0 mm 2 mps 742 mmHg 93%
    04:00 +12°C° 0 mm 2 mps 743 mmHg 92%
    05:00 +12°C° 0 mm 2 mps 743 mmHg 91%
    06:00 +14°C° 0 mm 2 mps 743 mmHg 84%
    07:00 +16°C° 0 mm 2 mps 743 mmHg 78%
    08:00 +18°C° 0 mm 2 mps 743 mmHg 72%
    09:00 +19°C° 0 mm 2 mps 744 mmHg 68%
    10:00 +20°C° 0 mm 2 mps 744 mmHg 63%
    11:00 +21°C° 0 mm 2 mps 744 mmHg 59%
    12:00 +21°C° 0.1 mm 2 mps 744 mmHg 58%
    13:00 +21°C° 0.1 mm 2 mps 744 mmHg 58%
    14:00 +23°C° 0.1 mm 2 mps 744 mmHg 57%
    15:00 +23°C° 0.1 mm 2 mps 744 mmHg 61%
    16:00 +21°C° 0.1 mm 2 mps 744 mmHg 64%
    17:00 +21°C° 0.1 mm 2 mps 744 mmHg 68%
    18:00 +19°C° 0 mm 2 mps 744 mmHg 73%
    19:00 +18°C° 0 mm 2 mps 745 mmHg 79%
    20:00 +16°C° 0 mm 1 mps 745 mmHg 85%
    21:00 +15°C° 0 mm 1 mps 745 mmHg 86%
    22:00 +15°C° 0 mm 1 mps 745 mmHg 87%
    23:00 +14°C° 0 mm 1 mps 745 mmHg 88%

    Day after tomorrow, 26 June, Tuesday

    Time Temperature Precipitation Wind Pressure Humidity
    00:00 +14°C° 0 mm 1 mps 746 mmHg 88%
    01:00 +12°C° 0 mm 0 mps 746 mmHg 89%
    02:00 +12°C° 0 mm 0 mps 746 mmHg 89%
    03:00 +13°C° 0 mm 0 mps 746 mmHg 88%
    04:00 +13°C° 0 mm 0 mps 746 mmHg 88%
    05:00 +14°C° 0 mm 0 mps 746 mmHg 87%
    06:00 +18°C° 0 mm 1 mps 746 mmHg 82%
    07:00 +19°C° 0 mm 1 mps 746 mmHg 77%
    08:00 +20°C° 0 mm 2 mps 746 mmHg 71%
    09:00 +21°C° 0 mm 2 mps 746 mmHg 67%
    10:00 +23°C° 0 mm 2 mps 746 mmHg 63%
    11:00 +24°C° 0 mm 2 mps 747 mmHg 58%
    12:00 +24°C° 0 mm 2 mps 746 mmHg 58%
    13:00 +25°C° 0 mm 2 mps 746 mmHg 57%
    14:00 +25°C° 0 mm 2 mps 746 mmHg 56%
    15:00 +25°C° 0 mm 2 mps 746 mmHg 59%
    16:00 +25°C° 0 mm 2 mps 745 mmHg 63%
    17:00 +25°C° 0 mm 2 mps 745 mmHg 66%
    18:00 +23°C° 0 mm 2 mps 745 mmHg 71%
    19:00 +20°C° 0 mm 2 mps 745 mmHg 76%
    20:00 +18°C° 0 mm 2 mps 745 mmHg 81%
    21:00 +18°C° 0 mm 2 mps 745 mmHg 83%
    22:00 +17°C° 0 mm 2 mps 745 mmHg 85%
    23:00 +16°C° 0 mm 2 mps 745 mmHg 87%

    27 June, Wednesday

    Time Temperature Precipitation Wind Pressure Humidity
    00:00 +16°C° 0 mm 2 mps 745 mmHg 86%
    01:00 +16°C° 0 mm 3 mps 745 mmHg 86%
    02:00 +16°C° 0 mm 3 mps 745 mmHg 85%
    03:00 +16°C° 0 mm 3 mps 745 mmHg 85%
    04:00 +16°C° 0 mm 3 mps 744 mmHg 84%
    05:00 +17°C° 0 mm 4 mps 744 mmHg 84%
    06:00 +18°C° 0 mm 4 mps 744 mmHg 80%
    07:00 +20°C° 0 mm 5 mps 745 mmHg 77%
    08:00 +22°C° 0 mm 5 mps 745 mmHg 73%
    09:00 +23°C° 0 mm 5 mps 744 mmHg 71%
    10:00 +25°C° 0 mm 5 mps 744 mmHg 69%
    11:00 +26°C° 0 mm 5 mps 744 mmHg 67%
    12:00 +27°C° 0 mm 5 mps 744 mmHg 67%
    13:00 +27°C° 0 mm 5 mps 744 mmHg 67%
    14:00 +28°C° 0 mm 5 mps 744 mmHg 67%
    15:00 +27°C° 0 mm 5 mps 744 mmHg 69%
    16:00 +27°C° 0 mm 5 mps 744 mmHg 71%
    17:00 +27°C° 0 mm 4 mps 743 mmHg 74%
    18:00 +26°C° 0.9 mm 4 mps 744 mmHg 79%
    19:00 +24°C° 0.9 mm 3 mps 744 mmHg 85%
    20:00 +22°C° 0.9 mm 3 mps 744 mmHg 91%
    21:00 +21°C° 0.1 mm 3 mps 744 mmHg 92%
    22:00 +20°C° 0.1 mm 3 mps 744 mmHg 93%
    23:00 +20°C° 0.1 mm 3 mps 744 mmHg 95%

    28 June, Thursday

    Time Temperature Precipitation Wind Pressure Humidity
    00:00 +20°C° 0 mm 3 mps 744 mmHg 95%
    01:00 +19°C° 0 mm 3 mps 744 mmHg 95%
    02:00 +19°C° 0 mm 3 mps 744 mmHg 96%
    03:00 +19°C° 0 mm 4 mps 744 mmHg 95%
    04:00 +19°C° 0 mm 4 mps 744 mmHg 95%
    05:00 +20°C° 0 mm 4 mps 744 mmHg 94%
    06:00 +21°C° 0 mm 4 mps 744 mmHg 89%
    07:00 +23°C° 0 mm 5 mps 744 mmHg 85%
    08:00 +25°C° 0 mm 5 mps 744 mmHg 80%
    09:00 +26°C° 0 mm 5 mps 744 mmHg 75%
    10:00 +27°C° 0 mm 6 mps 744 mmHg 71%
    11:00 +29°C° 0 mm 6 mps 744 mmHg 66%
    12:00 +29°C° 0 mm 6 mps 744 mmHg 65%
    13:00 +29°C° 0 mm 6 mps 743 mmHg 65%
    14:00 +30°C° 0 mm 6 mps 743 mmHg 64%
    15:00 +29°C° 0 mm 6 mps 743 mmHg 67%
    16:00 +29°C° 0 mm 5 mps 742 mmHg 70%
    17:00 +29°C° 0 mm 5 mps 742 mmHg 73%
    18:00 +27°C° 0 mm 5 mps 742 mmHg 76%
    19:00 +26°C° 0 mm 5 mps 742 mmHg 80%
    20:00 +25°C° 0 mm 5 mps 742 mmHg 83%
    21:00 +23°C° 0.7 mm 5 mps 742 mmHg 85%
    22:00 +22°C° 0.7 mm 5 mps 742 mmHg 87%
    23:00 +22°C° 0.7 mm 4 mps 742 mmHg 89%

    29 June, Friday

    Time Temperature Precipitation Wind Pressure Humidity
    00:00 +22°C° 0.4 mm 5 mps 741 mmHg 90%
    01:00 +21°C° 0.4 mm 5 mps 741 mmHg 92%
    02:00 +21°C° 0.4 mm 5 mps 741 mmHg 93%
    03:00 +21°C° 0.2 mm 5 mps 741 mmHg 93%
    04:00 +21°C° 0.2 mm 6 mps 740 mmHg 92%
    05:00 +21°C° 0.2 mm 6 mps 740 mmHg 92%
    06:00 +23°C° 0.2 mm 6 mps 740 mmHg 89%
    07:00 +25°C° 0.2 mm 5 mps 740 mmHg 86%
    08:00 +26°C° 0.2 mm 4 mps 741 mmHg 82%
    09:00 +27°C° 0.2 mm 4 mps 740 mmHg 79%
    10:00 +28°C° 0.2 mm 4 mps 740 mmHg 76%
    11:00 +29°C° 0.2 mm 4 mps 740 mmHg 73%
    12:00 +29°C° 2.4 mm 5 mps 740 mmHg 74%
    13:00 +28°C° 2.4 mm 5 mps 739 mmHg 76%
    14:00 +28°C° 2.4 mm 5 mps 739 mmHg 78%
    15:00 +28°C° 1 mm 5 mps 739 mmHg 79%
    16:00 +27°C° 1 mm 5 mps 739 mmHg 81%
    17:00 +27°C° 1 mm 5 mps 739 mmHg 82%
    18:00 +26°C° 1.3 mm 4 mps 738 mmHg 84%
    19:00 +25°C° 1.3 mm 4 mps 738 mmHg 86%
    20:00 +23°C° 1.3 mm 4 mps 738 mmHg 88%
    21:00 +23°C° 1.7 mm 4 mps 738 mmHg 89%
    22:00 +22°C° 1.7 mm 4 mps 737 mmHg 91%
    23:00 +22°C° 1.7 mm 4 mps 737 mmHg 92%
    Show more